• In Belarus
  • List of Countries
  • For 7 days
  • Water Temperature
  • Weather Map
  • Weather Widgets
  • user-avatar
    Login

    Hourly Weather Brisbane

    Today, 20 August, Tuesday

    Time Temperature Precipitation Wind Pressure Humidity
    00:00 +13°C° 0 mm 3 mps 764 mmHg 45%
    01:00 +12°C° 0 mm 3 mps 765 mmHg 47%
    02:00 +12°C° 0 mm 3 mps 765 mmHg 48%
    03:00 +11°C° 0 mm 3 mps 765 mmHg 48%
    04:00 +11°C° 0 mm 4 mps 765 mmHg 45%
    05:00 +11°C° 0 mm 3 mps 765 mmHg 46%
    06:00 +10°C° 0 mm 3 mps 766 mmHg 47%
    07:00 +10°C° 0 mm 2 mps 766 mmHg 48%
    08:00 +13°C° 0 mm 2 mps 766 mmHg 40%
    09:00 +15°C° 0 mm 2 mps 766 mmHg 33%
    10:00 +18°C° 0 mm 2 mps 766 mmHg 25%
    11:00 +19°C° 0 mm 2 mps 766 mmHg 23%
    12:00 +21°C° 0 mm 2 mps 765 mmHg 20%
    13:00 +23°C° 0 mm 2 mps 765 mmHg 17%
    14:00 +23°C° 0 mm 2 mps 764 mmHg 19%
    15:00 +21°C° 0 mm 2 mps 764 mmHg 21%
    16:00 +21°C° 0 mm 2 mps 764 mmHg 22%
    17:00 +19°C° 0 mm 2 mps 764 mmHg 32%
    18:00 +16°C° 0 mm 2 mps 764 mmHg 42%
    19:00 +14°C° 0 mm 2 mps 765 mmHg 52%
    20:00 +14°C° 0 mm 2 mps 765 mmHg 53%
    21:00 +13°C° 0 mm 2 mps 765 mmHg 54%
    22:00 +12°C° 0 mm 2 mps 765 mmHg 55%
    23:00 +12°C° 0 mm 2 mps 765 mmHg 56%

    Tomorrow, 21 August, Wednesday

    Time Temperature Precipitation Wind Pressure Humidity
    00:00 +10°C° 0 mm 2 mps 765 mmHg 57%
    01:00 +10°C° 0 mm 3 mps 765 mmHg 58%
    02:00 +10°C° 0 mm 3 mps 764 mmHg 58%
    03:00 +10°C° 0 mm 3 mps 764 mmHg 59%
    04:00 +9°C° 0 mm 3 mps 764 mmHg 59%
    05:00 +9°C° 0 mm 3 mps 764 mmHg 59%
    06:00 +9°C° 0 mm 3 mps 764 mmHg 58%
    07:00 +9°C° 0 mm 3 mps 764 mmHg 57%
    08:00 +12°C° 0 mm 3 mps 764 mmHg 49%
    09:00 +15°C° 0 mm 4 mps 764 mmHg 41%
    10:00 +18°C° 0 mm 4 mps 763 mmHg 32%
    11:00 +20°C° 0 mm 4 mps 762 mmHg 29%
    12:00 +22°C° 0 mm 4 mps 761 mmHg 25%
    13:00 +25°C° 0 mm 4 mps 760 mmHg 22%
    14:00 +25°C° 0 mm 4 mps 760 mmHg 24%
    15:00 +25°C° 0 mm 5 mps 760 mmHg 26%
    16:00 +25°C° 0 mm 5 mps 759 mmHg 28%
    17:00 +22°C° 0 mm 5 mps 760 mmHg 33%
    18:00 +20°C° 0 mm 5 mps 760 mmHg 38%
    19:00 +17°C° 0 mm 5 mps 760 mmHg 42%
    20:00 +16°C° 0 mm 5 mps 761 mmHg 46%
    21:00 +15°C° 0 mm 5 mps 761 mmHg 50%
    22:00 +14°C° 0 mm 5 mps 761 mmHg 53%
    23:00 +14°C° 0 mm 4 mps 761 mmHg 56%

    Day after tomorrow, 22 August, Thursday

    Time Temperature Precipitation Wind Pressure Humidity
    00:00 +13°C° 0 mm 4 mps 761 mmHg 58%
    01:00 +13°C° 0 mm 4 mps 760 mmHg 61%
    02:00 +12°C° 0 mm 4 mps 760 mmHg 63%
    03:00 +12°C° 0 mm 4 mps 760 mmHg 65%
    04:00 +11°C° 0 mm 3 mps 760 mmHg 67%
    05:00 +11°C° 0 mm 3 mps 760 mmHg 66%
    06:00 +11°C° 0 mm 3 mps 761 mmHg 66%
    07:00 +11°C° 0 mm 3 mps 761 mmHg 66%
    08:00 +13°C° 0 mm 4 mps 761 mmHg 57%
    09:00 +15°C° 0 mm 4 mps 761 mmHg 48%
    10:00 +19°C° 0 mm 4 mps 761 mmHg 39%
    11:00 +21°C° 0 mm 4 mps 760 mmHg 35%
    12:00 +22°C° 0 mm 4 mps 759 mmHg 31%
    13:00 +25°C° 0 mm 4 mps 758 mmHg 27%
    14:00 +25°C° 0 mm 4 mps 758 mmHg 28%
    15:00 +25°C° 0 mm 5 mps 758 mmHg 30%
    16:00 +23°C° 0 mm 5 mps 758 mmHg 31%
    17:00 +22°C° 0 mm 5 mps 759 mmHg 36%
    18:00 +20°C° 0 mm 4 mps 759 mmHg 41%
    19:00 +18°C° 0 mm 4 mps 760 mmHg 46%
    20:00 +17°C° 0 mm 3 mps 761 mmHg 50%
    21:00 +16°C° 0 mm 3 mps 762 mmHg 54%
    22:00 +15°C° 0 mm 2 mps 763 mmHg 57%
    23:00 +14°C° 0 mm 2 mps 763 mmHg 59%

    23 August, Friday

    Time Temperature Precipitation Wind Pressure Humidity
    00:00 +13°C° 0 mm 3 mps 763 mmHg 61%
    01:00 +12°C° 0 mm 3 mps 763 mmHg 63%
    02:00 +11°C° 0 mm 3 mps 764 mmHg 66%
    03:00 +11°C° 0 mm 3 mps 764 mmHg 68%
    04:00 +10°C° 0 mm 3 mps 764 mmHg 70%
    05:00 +10°C° 0 mm 3 mps 765 mmHg 68%
    06:00 +10°C° 0 mm 3 mps 765 mmHg 67%
    07:00 +10°C° 0 mm 2 mps 766 mmHg 65%
    08:00 +13°C° 0 mm 2 mps 766 mmHg 56%
    09:00 +16°C° 0 mm 2 mps 766 mmHg 47%
    10:00 +18°C° 0 mm 2 mps 766 mmHg 39%
    11:00 +19°C° 0 mm 3 mps 766 mmHg 37%
    12:00 +21°C° 0 mm 3 mps 765 mmHg 35%
    13:00 +22°C° 0 mm 3 mps 765 mmHg 33%
    14:00 +21°C° 0 mm 3 mps 765 mmHg 36%
    15:00 +21°C° 0 mm 3 mps 765 mmHg 39%
    16:00 +20°C° 0 mm 3 mps 764 mmHg 42%
    17:00 +19°C° 0 mm 3 mps 765 mmHg 50%
    18:00 +17°C° 0 mm 3 mps 766 mmHg 58%
    19:00 +14°C° 0 mm 3 mps 766 mmHg 67%
    20:00 +14°C° 0 mm 3 mps 767 mmHg 69%
    21:00 +13°C° 0 mm 3 mps 767 mmHg 72%
    22:00 +14°C° 0 mm 2 mps 767 mmHg 74%
    23:00 +13°C° 0 mm 2 mps 767 mmHg 76%

    24 August, Saturday

    Time Temperature Precipitation Wind Pressure Humidity
    00:00 +13°C° 0 mm 2 mps 766 mmHg 77%
    01:00 +12°C° 0 mm 2 mps 766 mmHg 79%
    02:00 +12°C° 0 mm 2 mps 766 mmHg 80%
    03:00 +11°C° 0 mm 1 mps 766 mmHg 80%
    04:00 +11°C° 0 mm 1 mps 766 mmHg 81%
    05:00 +11°C° 0 mm 1 mps 766 mmHg 81%
    06:00 +10°C° 0 mm 2 mps 766 mmHg 80%
    07:00 +10°C° 0 mm 2 mps 767 mmHg 79%
    08:00 +14°C° 0 mm 2 mps 767 mmHg 70%
    09:00 +18°C° 0 mm 1 mps 767 mmHg 60%
    10:00 +21°C° 0 mm 1 mps 767 mmHg 51%
    11:00 +21°C° 0 mm 1 mps 766 mmHg 49%
    12:00 +22°C° 0 mm 1 mps 765 mmHg 46%
    13:00 +22°C° 0 mm 1 mps 764 mmHg 44%
    14:00 +21°C° 0 mm 2 mps 764 mmHg 44%
    15:00 +21°C° 0 mm 2 mps 763 mmHg 44%
    16:00 +21°C° 0 mm 3 mps 763 mmHg 44%
    17:00 +19°C° 0 mm 3 mps 763 mmHg 52%
    18:00 +18°C° 0 mm 3 mps 763 mmHg 61%
    19:00 +16°C° 0 mm 3 mps 764 mmHg 69%
    20:00 +15°C° 0 mm 2 mps 764 mmHg 72%
    21:00 +14°C° 0 mm 2 mps 764 mmHg 76%
    22:00 +14°C° 0 mm 2 mps 764 mmHg 79%
    23:00 +13°C° 0 mm 2 mps 764 mmHg 80%

    25 August, Sunday

    Time Temperature Precipitation Wind Pressure Humidity
    00:00 +13°C° 0 mm 1 mps 764 mmHg 81%
    01:00 +13°C° 0 mm 1 mps 763 mmHg 82%
    02:00 +12°C° 0 mm 1 mps 763 mmHg 83%
    03:00 +12°C° 0 mm 1 mps 763 mmHg 83%
    04:00 +12°C° 0 mm 1 mps 763 mmHg 84%
    05:00 +12°C° 0 mm 1 mps 764 mmHg 82%
    06:00 +12°C° 0 mm 1 mps 764 mmHg 81%
    07:00 +12°C° 0 mm 1 mps 764 mmHg 79%
    08:00 +15°C° 0 mm 1 mps 764 mmHg 68%
    09:00 +19°C° 0 mm 1 mps 764 mmHg 56%
    10:00 +22°C° 0 mm 1 mps 764 mmHg 45%
    11:00 +24°C° 0 mm 1 mps 763 mmHg 41%
    12:00 +25°C° 0 mm 1 mps 762 mmHg 37%
    13:00 +26°C° 0 mm 1 mps 762 mmHg 33%
    14:00 +25°C° 0 mm 1 mps 761 mmHg 37%
    15:00 +24°C° 0 mm 2 mps 761 mmHg 40%
    16:00 +23°C° 0 mm 2 mps 761 mmHg 44%
    17:00 +21°C° 0 mm 2 mps 761 mmHg 49%
    18:00 +20°C° 0 mm 2 mps 762 mmHg 54%
    19:00 +19°C° 0 mm 2 mps 762 mmHg 60%
    20:00 +19°C° 0 mm 1 mps 763 mmHg 63%
    21:00 +18°C° 0 mm 1 mps 763 mmHg 66%
    22:00 +18°C° 0 mm 1 mps 763 mmHg 69%
    23:00 +16°C° 0 mm 1 mps 763 mmHg 71%
    Show more